SQ3KKR-15 Weather Reports


Display with metric or nautical units.
time (UTC)temp
F
wind
direction
speed
MPH
gust
MPH
rain 1hr
in
rain 24hr
in
rain mn
in
humidity
%
barometer
mb
20221003090439 58 0.0 0.0 0.00 0.00 0.00 68 1016.0
20221003085439 58 0.0 0.0 0.00 0.00 0.00 68 1016.0
20221003084439 58 0.0 0.0 0.00 0.00 0.00 69 1015.9
20221003083439 57 0.0 0.0 0.00 0.00 0.00 70 1015.9
20221003082439 57 0.0 0.0 0.00 0.00 0.00 70 1015.7
20221003081439 57 0.0 0.0 0.00 0.00 0.00 71 1015.6
20221003080439 57 0.0 0.0 0.00 0.00 0.00 71 1015.6
20221003075439 57 0.0 0.0 0.00 0.00 0.00 72 1015.5
20221003074439 57 0.0 0.0 0.00 0.00 0.00 71 1015.4
20221003073439 57 0.0 0.0 0.00 0.00 0.00 71 1015.2
20221003072439 57 0.0 0.0 0.00 0.00 0.00 73 1015.2
20221003071439 56 0.0 0.0 0.00 0.00 0.00 74 1015.0
20221003070439 56 0.0 0.0 0.00 0.00 0.00 75 1014.9
20221003065439 55 0.0 0.0 0.00 0.00 0.00 77 1014.9
20221003064439 55 0.0 0.0 0.00 0.00 0.00 77 1014.8
20221003063439 55 0.0 0.0 0.00 0.00 0.00 78 1014.7
20221003062439 54 0.0 0.0 0.00 0.00 0.00 79 1014.6
20221003061439 55 0.0 0.0 0.00 0.00 0.00 79 1014.6
20221003060439 54 0.0 0.0 0.00 0.00 0.00 81 1014.5
20221003055439 53 0.0 0.0 0.00 0.00 0.00 82 1014.4
20221003054439 54 0.0 0.0 0.00 0.00 0.00 82 1014.3
20221003053439 53 0.0 0.0 0.00 0.00 0.00 83 1014.2
20221003052439 52 0.0 0.0 0.00 0.00 0.00 84 1014.1
20221003051439 53 0.0 0.0 0.00 0.00 0.00 83 1014.1
20221003050439 53 0.0 0.0 0.00 0.00 0.00 85 1014.1
20221003045439 52 0.0 0.0 0.00 0.00 0.00 86 1014.0
20221003044439 52 0.0 0.0 0.00 0.00 0.00 86 1013.9
20221003043438 51 0.0 0.0 0.00 0.00 0.00 87 1013.6
20221003042439 51 0.0 0.0 0.00 0.00 0.00 87 1013.6
20221003041438 51 0.0 0.0 0.00 0.00 0.00 86 1013.6
20221003040438 51 0.0 0.0 0.00 0.00 0.00 86 1013.5
20221003035439 51 0.0 0.0 0.00 0.00 0.00 86 1013.5
20221003034438 51 0.0 0.0 0.00 0.00 0.00 85 1013.5
20221003033438 51 0.0 0.0 0.00 0.00 0.00 85 1013.5
20221003032439 51 0.0 0.0 0.00 0.00 0.00 85 1013.4
20221003031438 52 0.0 0.0 0.00 0.00 0.00 82 1013.3
20221003030438 52 0.0 0.0 0.00 0.00 0.00 83 1013.4
20221003025439 53 0.0 0.0 0.00 0.00 0.00 83 1013.3
20221003024438 53 0.0 0.0 0.00 0.00 0.00 82 1013.2
20221003023438 53 0.0 0.0 0.00 0.00 0.00 83 1013.2
20221003021438 53 0.0 0.0 0.00 0.00 0.00 84 1013.1
20221003020438 52 0.0 0.0 0.00 0.00 0.00 86 1013.1
20221003015439 51 0.0 0.0 0.00 0.00 0.00 87 1013.0
20221003014438 51 0.0 0.0 0.00 0.00 0.00 85 1013.0
20221003013438 51 0.0 0.0 0.00 0.00 0.00 87 1013.0
20221003012439 51 0.0 0.0 0.00 0.00 0.00 86 1012.9
20221003011438 52 0.0 0.0 0.00 0.00 0.00 86 1012.9
20221003010438 51 0.0 0.0 0.00 0.00 0.00 88 1012.9
20221003005439 51 0.0 0.0 0.00 0.00 0.00 89 1012.9
20221003004438 51 0.0 0.0 0.00 0.00 0.00 88 1012.8
20221003003438 50 0.0 0.0 0.00 0.00 0.00 89 1012.8
20221003002439 50 0.0 0.0 0.00 0.00 0.00 90 1012.6
20221003001438 50 0.0 0.0 0.00 0.00 0.00 89 1012.7
20221003000438 49 0.0 0.0 0.00 0.00 0.00 89 1012.7
20221002235438 49 0.0 0.0 0.00 0.00 0.00 89 1012.6
20221002234438 50 0.0 0.0 0.00 0.00 0.00 86 1012.4
20221002233438 49 0.0 0.0 0.00 0.00 0.00 87 1012.3
20221002232438 49 0.0 0.0 0.00 0.00 0.00 87 1012.3
20221002231438 50 0.0 0.0 0.00 0.00 0.00 85 1012.3
20221002230438 50 0.0 0.0 0.00 0.00 0.00 87 1012.2
20221002225438 50 0.0 0.0 0.00 0.00 0.00 87 1012.2
20221002224438 51 0.0 0.0 0.00 0.00 0.00 85 1012.1
20221002223438 50 0.0 0.0 0.00 0.00 0.00 87 1012.0
20221002222438 50 0.0 0.0 0.00 0.00 0.00 88 1012.0
20221002221438 51 0.0 0.0 0.00 0.00 0.00 85 1011.9
20221002220438 50 0.0 0.0 0.00 0.00 0.00 86 1011.9
20221002215438 50 0.0 0.0 0.00 0.00 0.00 85 1011.9
20221002214438 51 0.0 0.0 0.00 0.00 0.00 83 1011.8
20221002213438 51 0.0 0.0 0.00 0.00 0.00 84 1011.8
20221002212438 51 0.0 0.0 0.00 0.00 0.00 83 1011.8
20221002211438 51 0.0 0.0 0.00 0.00 0.00 81 1011.7
20221002210438 51 0.0 0.0 0.00 0.00 0.00 82 1011.7
20221002205438 52 0.0 0.0 0.00 0.00 0.00 82 1011.7
20221002204438 52 0.0 0.0 0.00 0.00 0.00 81 1011.6
20221002203438 52 0.0 0.0 0.00 0.00 0.00 80 1011.4
20221002202438 53 0.0 0.0 0.00 0.00 0.00 80 1011.4
20221002201438 53 0.0 0.0 0.00 0.00 0.00 81 1011.3
20221002200438 53 0.0 0.0 0.00 0.00 0.00 81 1011.4
20221002195438 52 0.0 0.0 0.00 0.00 0.00 83 1011.4
20221002194438 52 0.0 0.0 0.00 0.00 0.00 83 1011.3
20221002193438 51 0.0 0.0 0.00 0.00 0.00 83 1011.2
20221002192438 51 0.0 0.0 0.00 0.00 0.00 83 1011.2
20221002191437 51 0.0 0.0 0.00 0.00 0.00 84 1011.1
20221002190437 51 0.0 0.0 0.00 0.00 0.00 84 1010.9
20221002185438 51 0.0 0.0 0.00 0.00 0.00 84 1010.8
20221002184437 51 0.0 0.0 0.00 0.00 0.00 84 1010.8
20221002183437 51 0.0 0.0 0.00 0.00 0.00 83 1010.7
20221002182438 50 0.0 0.0 0.00 0.00 0.00 83 1010.6
20221002181437 50 0.0 0.0 0.00 0.00 0.00 83 1010.6
20221002180437 50 0.0 0.0 0.00 0.00 0.00 81 1010.4
20221002175438 50 0.0 0.0 0.00 0.00 0.00 82 1010.4
20221002174437 50 0.0 0.0 0.00 0.00 0.00 82 1010.3
20221002173437 50 0.0 0.0 0.00 0.00 0.00 81 1010.2
20221002172438 50 0.0 0.0 0.00 0.00 0.00 80 1010.1
20221002171437 50 0.0 0.0 0.00 0.00 0.00 80 1010.0
20221002170437 50 0.0 0.0 0.00 0.00 0.00 80 1009.9
20221002165438 51 0.0 0.0 0.00 0.00 0.00 81 1009.9
20221002164437 51 0.0 0.0 0.00 0.00 0.00 81 1009.8
20221002163437 51 0.0 0.0 0.00 0.00 0.00 80 1009.7
20221002162438 52 0.0 0.0 0.00 0.00 0.00 81 1009.6
20221002161437 52 0.0 0.0 0.00 0.00 0.00 81 1009.5
20221002160437 52 0.0 0.0 0.00 0.00 0.00 79 1009.4
20221002155438 53 0.0 0.0 0.00 0.00 0.00 77 1009.5
20221002154437 55 0.0 0.0 0.00 0.00 0.00 74 1009.6
20221002153437 60 0.0 0.0 0.00 0.00 0.00 60 1009.1
20221002152438 60 0.0 0.0 0.00 0.00 0.00 61 1008.9
20221002151437 60 0.0 0.0 0.00 0.00 0.00 62 1008.8
20221002150437 61 0.0 0.0 0.00 0.00 0.00 61 1008.8
20221002145437 61 0.0 0.0 0.00 0.00 0.00 61 1008.7
20221002144437 62 0.0 0.0 0.00 0.00 0.00 62 1008.6
20221002143437 63 0.0 0.0 0.00 0.00 0.00 62 1008.6
20221002142437 62 0.0 0.0 0.00 0.00 0.00 62 1008.7
20221002141437 61 0.0 0.0 0.00 0.00 0.00 62 1008.8
20221002140437 61 0.0 0.0 0.00 0.00 0.00 62 1008.9
20221002135437 61 0.0 0.0 0.00 0.00 0.00 62 1008.8
20221002134437 60 0.0 0.0 0.00 0.00 0.00 63 1008.9
20221002133437 59 0.0 0.0 0.00 0.00 0.00 63 1008.9
20221002132437 59 0.0 0.0 0.00 0.00 0.00 63 1008.9
20221002131437 59 0.0 0.0 0.00 0.00 0.00 64 1009.0
20221002130437 60 0.0 0.0 0.00 0.00 0.00 65 1008.9
20221002125437 60 0.0 0.0 0.00 0.00 0.00 65 1009.0
20221002124437 60 0.0 0.0 0.00 0.00 0.00 66 1009.1
20221002123437 60 0.0 0.0 0.00 0.00 0.00 67 1009.1
20221002122437 61 0.0 0.0 0.00 0.00 0.00 65 1009.2
20221002121437 62 0.0 0.0 0.00 0.00 0.00 63 1009.3
20221002120437 63 0.0 0.0 0.00 0.00 0.00 59 1009.3
20221002115437 64 0.0 0.0 0.00 0.00 0.00 59 1009.1
20221002114437 64 0.0 0.0 0.00 0.00 0.00 58 1009.0
20221002113437 65 0.0 0.0 0.00 0.00 0.00 56 1009.0
20221002112437 65 0.0 0.0 0.00 0.00 0.00 57 1009.0
20221002111437 64 0.0 0.0 0.00 0.00 0.00 58 1009.2
20221002110437 64 0.0 0.0 0.00 0.00 0.00 58 1009.2
20221002105437 63 0.0 0.0 0.00 0.00 0.00 58 1009.2
20221002104437 63 0.0 0.0 0.00 0.00 0.00 58 1009.3
20221002103436 63 0.0 0.0 0.00 0.00 0.00 60 1009.3
20221002102437 62 0.0 0.0 0.00 0.00 0.00 61 1009.3
20221002101437 62 0.0 0.0 0.00 0.00 0.00 62 1009.3
20221002100436 61 0.0 0.0 0.00 0.00 0.00 62 1009.3
20221002095437 61 0.0 0.0 0.00 0.00 0.00 64 1009.2